User: anonymous   Login
Location: Unspecified
(0.0000°N, 0.0000°E)
Time: 04:46:01
(UTC+00:00)
Language:

Explorer 25 - Orbit

View from above orbital plane
View from above orbital plane
View from above satellite
View from above satellite

Ground track
Ground track

The orbit data is extracted from the following two-line orbital elements,

1   932U 64076B   18020.52235085 +.00000058 +00000-0 +16262-4 0  9992
2   932 081.3386 211.5459 1132683 004.1633 356.7960 12.63901832431068
Epoch (UTC): 20 January 2018 12:32:11
Eccentricity: 0.1132683
inclination: 81.3386°
perigee height: 525 km
apogee height: 2288 km
right ascension of ascending node: 211.5459°
argument of perigee: 4.1633°
revolutions per day: 12.63901832
mean anomaly at epoch: 356.7960°
orbit number at epoch: 43106

The dashed part of the orbit path shows where the satellite is in the earth's shadow,  

DLR